Weather Roundup
Issued by NWS Chicago, IL

Home | Current Version | Previous Version | Text Only | Print | Product List | Glossary Off
Versions: 1 2 3 4 5 6 7 8 9 10 11 12 13 14 15 16 17 18 19 20 21 22 23 24 25 26 27 28 29 30 31 32 33 34 35 36 37 38 39 40 41 42 43 44 45 46 47 48 49 50

000
NZUS59 KLOT 211006
HRRLOT

CHICAGO AREA WEATHER ROUNDUP
NATIONAL WEATHER SERVICE CHICAGO/ROMEOVILLE IL
400 AM CST SUN DEC 21 2014

NOTE: "FAIR" INDICATES FEW OR NO CLOUDS BELOW 12,000 FEET WITH NO
SIGNIFICANT WEATHER AND/OR OBSTRUCTIONS TO VISIBILITY.

* THESE STATIONS ARE NOT UNDER NWS QUALITY CONTROL. THEY ALSO MAY NOT
  REPORT WEATHER SUCH AS PRECIPITATION OR FOG.

ILZ005-006-012>014-019>023-211100-
NORTHEAST ILLINOIS

CITY           SKY/WX    TMP DP  RH WIND       PRES   REMARKS
OHARE          CLOUDY    32  27  81 S7        30.21F WCI  26
MIDWAY         CLOUDY    34  27  75 S9        30.23F WCI  27
AURORA         CLOUDY    33  27  78 S6        30.21F HAZE    WCI  28
LANSING*       CLOUDY    32  27  82 S8        30.24F WCI  25
JOLIET*        CLOUDY    32  28  84 S7        30.23F WCI  26
WAUKEGAN       CLOUDY    31  26  82 S6        30.21F WCI  25
DUPAGE AIRPORT CLOUDY    32  27  81 S8        30.20F WCI  25
WHEELING       CLOUDY    33  26  75 S7        30.23F WCI  27
KANKAKEE*      CLOUDY    32  28  84 SE7       30.24F WCI  25
MORRIS*        CLOUDY    32  31  94 S5        30.21F WCI  27
LEWIS AIRPORT* CLOUDY    32  28  86 S8        30.22F WCI  25
NORTHERLY IS     N/A     33  26  76 S8          N/A  WCI  26
$$

WIZ051-052-058>065-066-070>072-211100-
SOUTHEAST WISCONSIN

CITY           SKY/WX    TMP DP  RH WIND       PRES   REMARKS
MILWAUKEE      CLOUDY    32  26  78 S6        30.20F WCI  26
KENOSHA*       CLOUDY    32  27  81 S7        30.20F WCI  26
RACINE*        CLOUDY    32  26  78 S6        30.22F WCI  26
BURLINGTON     CLOUDY    30  27  88 S5        30.19F WCI  25
WAUKESHA       CLOUDY    30  27  86 S7        30.19F WCI  23
WEST BEND      CLOUDY    30  27  86 CALM      30.18F
$$

INZ001>003-010>013-019-020-211100-
NORTHWEST INDIANA

CITY           SKY/WX    TMP DP  RH WIND       PRES   REMARKS
GARY*          NOT AVBL
MICHIGAN CITY* NOT AVBL
RENSSELAER*    NOT AVBL
VALPARAISO     CLOUDY    30  26  85 S6        30.26S WCI  24
$$

LMZ740>746-211100-
SOUTHERN LAKE MICHIGAN

STATION/POSITION TIME  SKY/WX   TEMP WIND        PRES    VSBY
                                AIR  DIR/SP/G
                 (UTC)          (F)  (DEG/KT/KT) (MB)    (MI)
HARRISON CRIB    1000            33  170/ 12/ 13   N/A
BURNHAM HARBOR   1000            33  190/  5/ 10   N/A
CALUMET HARBOR   1000            33  180/  7/ 12 1022.7S
BURNS HARBOR     NOT AVBL
MICHIGAN CITY    NOT AVBL
$$

ABBREVIATIONS USED IN REMARKS
   TC - TEMPERATURE IN CELSIUS
  WCI - WIND CHILL INDEX
   HX - HEAT INDEX
  VSB - VISIBILITY
$$



USA.gov is the U.S. government's official web portal to all federal, state and local government web resources and services.